Waarnemingen

Advertentie
Mijn weer
Talavera de la Reina, Spanje (8274): temperatuur & dauwpunt: 23.01.2020 19:00:00 - 29.01.2020 19:00:00 (CET)Talavera de la Reina, Spanje (8274): windsnelheid & windstoten: 23.01.2020 19:00:00 - 29.01.2020 19:00:00 (CET)Talavera de la Reina, Spanje (8274): windrichting: 23.01.2020 19:00:00 - 29.01.2020 19:00:00 (CET)Talavera de la Reina, Spanje (8274): luchtdruk: 23.01.2020 19:00:00 - 29.01.2020 19:00:00 (CET)Talavera de la Reina, Spanje (8274): zicht: 23.01.2020 19:00:00 - 29.01.2020 19:00:00 (CET)Talavera de la Reina, Spanje (8274): Zonneschijnduur: 23.01.2020 19:00:00 - 29.01.2020 19:00:00 (CET)Talavera de la Reina, Spanje (8274): neerslag: 23.01.2020 19:00:00 - 29.01.2020 19:00:00 (CET)
Datum & Tijd tt [°C] td [°C] ff [km/u] ff [kn] fx [km/u] fx [kn] dd ppp [hPa] vv [km] sd [min] rr [mm]
29.01.2020 19:00:00 13,1 10,0 9 5 21 11 WNW 1024,6 20 0 -
29.01.2020 18:00:00 13,5 10,3 14 7 24 13 WNW 1024,3 20 0 0,0
29.01.2020 17:00:00 14,1 10,5 16 9 28 15 W 1024,0 20 10 0,0
29.01.2020 16:00:00 14,3 10,5 17 9 29 16 WNW 1024,2 20 4 0,0
29.01.2020 15:00:00 13,1 11,0 16 9 24 13 WNW 1024,7 20 0 0,0
29.01.2020 14:00:00 14,1 10,2 16 9 27 14 W 1025,1 20 0 0,0
29.01.2020 13:00:00 13,6 10,0 14 8 25 14 W 1026,0 20 0 -
29.01.2020 12:00:00 13,6 10,2 16 9 27 15 W 1026,3 20 23 0,0
29.01.2020 11:00:00 12,4 10,3 8 4 13 7 W 1026,2 20 3 0,0
29.01.2020 10:00:00 11,4 9,7 6 3 10 6 W 1025,9 20 0 0,0
29.01.2020 09:00:00 11,3 9,6 7 4 12 7 W 1025,6 20 0 0,0
29.01.2020 08:00:00 11,4 9,8 6 4 14 8 WZW 1025,2 20 0 0,0
29.01.2020 07:00:00 11,4 9,8 7 4 19 10 WZW 1024,6 20 0 -
29.01.2020 06:00:00 11,2 9,7 6 4 14 8 W 1024,5 20 0 0,0
29.01.2020 05:00:00 11,3 9,6 10 5 20 11 W 1024,4 20 0 0,0
29.01.2020 04:00:00 11,8 10,0 9 5 14 8 W 1024,5 20 0 0,0
29.01.2020 03:00:00 11,7 9,6 5 3 16 9 W 1024,3 20 0 0,0
29.01.2020 02:00:00 12,3 9,8 10 5 24 13 W 1024,4 20 0 0,0
29.01.2020 01:00:00 12,7 9,9 16 9 24 13 WZW 1024,3 20 0 -
29.01.2020 00:00:00 12,5 10,0 9 5 19 10 WZW 1024,4 20 0 0,0
28.01.2020 23:00:00 12,7 10,0 14 7 21 12 W 1024,4 20 0 0,0
28.01.2020 22:00:00 12,6 10,3 9 5 19 10 WZW 1024,3 20 0 0,0
28.01.2020 21:00:00 12,7 10,3 10 5 23 12 WZW 1024,2 20 0 0,0
28.01.2020 20:00:00 12,8 10,2 11 6 22 12 WZW 1023,9 20 0 0,0
28.01.2020 19:00:00 12,5 10,5 12 6 26 14 W 1023,7 20 0 -
28.01.2020 18:00:00 13,2 11,1 18 10 28 15 W 1023,2 20 0 0,0
28.01.2020 17:00:00 13,4 11,4 16 9 32 18 W 1023,2 20 0 0,2
28.01.2020 16:00:00 13,5 11,3 20 11 36 20 W 1023,3 20 0 0,0
28.01.2020 15:00:00 13,7 11,0 21 11 34 18 W 1023,4 20 0 0,0
28.01.2020 14:00:00 13,8 11,1 18 10 35 19 W 1024,0 20 0 0,0
28.01.2020 13:00:00 13,4 10,9 19 10 26 14 W 1024,9 20 0 -
28.01.2020 12:00:00 12,9 10,4 18 10 28 15 W 1024,9 20 0 0,0
28.01.2020 11:00:00 12,5 9,9 16 9 27 15 WZW 1024,4 20 0 0,0
28.01.2020 10:00:00 11,5 9,8 10 5 22 12 W 1024,1 20 0 0,0
28.01.2020 09:00:00 11,3 9,6 11 6 21 11 WZW 1023,4 20 0 0,0
28.01.2020 08:00:00 11,2 9,4 11 6 20 11 WZW 1023,3 20 0 0,0
28.01.2020 07:00:00 10,7 9,6 4 2 17 9 ZZW 1023,0 20 0 -
28.01.2020 06:00:00 10,6 9,6 10 6 20 11 W 1022,8 20 0 0,0
28.01.2020 05:00:00 10,5 9,6 11 6 21 12 W 1023,1 20 0 0,0
28.01.2020 04:00:00 10,7 9,8 13 7 26 14 W 1023,6 11 0 0,4
28.01.2020 03:00:00 10,2 9,3 7 4 16 9 NW 1023,7 4,8 0 0,0
28.01.2020 02:00:00 10,0 9,0 8 5 16 9 WNW 1024,0 10 0 0,4
28.01.2020 01:00:00 9,8 8,9 10 5 16 8 W 1024,0 15 0 -
28.01.2020 00:00:00 9,5 8,5 5 3 12 7 WZW 1024,3 16 0 0,0
27.01.2020 23:00:00 9,6 8,7 10 5 14 8 W 1024,5 17 0 0,2
27.01.2020 22:00:00 9,5 8,4 3 2 11 6 W 1024,7 3,3 0 0,2
27.01.2020 21:00:00 9,6 8,5 8 4 17 9 W 1024,2 3,0 0 0,4
27.01.2020 20:00:00 9,9 8,1 6 3 11 6 NNW 1024,0 20 0 0,0
27.01.2020 19:00:00 10,2 8,0 6 4 14 8 WNW 1023,8 15 0 -
27.01.2020 18:00:00 10,5 7,6 13 7 28 15 W 1023,7 20 0 0,0
27.01.2020 17:00:00 11,2 7,3 18 10 34 18 WNW 1023,8 20 4 0,0
27.01.2020 16:00:00 11,7 7,3 22 12 34 19 W 1023,7 17 40 0,0
27.01.2020 15:00:00 12,2 7,8 20 11 34 18 WNW 1024,3 20 35 0,0
27.01.2020 14:00:00 10,6 7,7 13 7 26 14 W 1025,1 20 0 0,0
27.01.2020 13:00:00 - - - - - - - - - - -
27.01.2020 12:00:00 9,8 6,4 14 8 21 11 W 1026,2 20 29 0,0
27.01.2020 11:00:00 8,9 6,5 10 6 17 9 W 1026,4 20 12 0,0
27.01.2020 10:00:00 7,6 6,4 8 5 13 7 WNW 1026,4 18 0 0,0
27.01.2020 09:00:00 6,3 5,1 3 1 8 5 W 1026,6 14 0 0,0
27.01.2020 08:00:00 6,0 4,8 5 3 9 5 ZW 1026,3 19 0 0,0
27.01.2020 07:00:00 5,8 4,8 6 3 9 5 ZZW 1026,2 18 0 -
27.01.2020 06:00:00 5,6 4,6 1 1 5 3 ZW 1026,3 17 0 0,0
27.01.2020 05:00:00 5,2 4,1 2 1 4 2 O 1026,5 14 0 0,0
27.01.2020 04:00:00 5,0 3,9 3 1 7 4 OZO 1027,0 12 0 0,0
27.01.2020 03:00:00 4,9 3,9 4 2 6 4 ZZW 1027,4 20 0 0,0
27.01.2020 02:00:00 4,5 3,4 1 1 4 2 N 1027,6 13 0 0,0
27.01.2020 01:00:00 3,7 2,7 3 2 5 3 ZZO 1028,1 20 0 -
27.01.2020 00:00:00 2,1 0,9 4 2 5 3 NNW 1028,2 11 0 0,0
26.01.2020 23:00:00 3,0 1,5 3 1 4 2 ZZW 1028,0 14 0 0,0
26.01.2020 22:00:00 4,1 2,7 1 1 9 5 NW 1027,8 20 0 0,0
26.01.2020 21:00:00 4,5 2,7 8 4 10 5 W 1027,4 19 0 0,0
26.01.2020 20:00:00 6,0 3,8 4 2 8 4 W 1026,8 20 0 0,0
26.01.2020 19:00:00 8,5 5,1 4 2 18 10 W 1025,6 20 27 -
26.01.2020 18:00:00 10,5 4,8 15 8 28 15 WNW 1025,0 20 60 0,0
26.01.2020 17:00:00 11,1 4,8 19 10 30 16 W 1024,6 20 60 0,0
26.01.2020 16:00:00 11,5 5,3 12 6 21 11 W 1024,3 20 57 0,0
26.01.2020 15:00:00 10,8 6,4 10 5 18 10 WNW 1024,8 20 41 0,0
26.01.2020 14:00:00 9,0 5,9 10 6 18 10 W 1025,6 20 8 0,0
26.01.2020 13:00:00 8,2 6,1 10 6 16 9 W 1026,3 20 0 -
26.01.2020 12:00:00 7,8 5,8 7 4 12 7 WZW 1026,2 20 0 0,0
26.01.2020 11:00:00 7,2 6,2 7 4 19 10 W 1025,4 20 0 0,0
26.01.2020 10:00:00 6,0 5,1 2 1 6 3 WZW 1025,1 20 0 0,0
26.01.2020 09:00:00 4,8 3,9 5 3 9 5 W - - 0 0,0
26.01.2020 08:00:00 6,4 5,5 6 3 10 5 ZW 1023,2 9 0 0,0
26.01.2020 07:00:00 7,1 6,4 3 2 6 3 WZW 1022,6 14 0 -
26.01.2020 06:00:00 6,7 5,9 5 3 8 4 W 1021,9 3,3 0 0,0
26.01.2020 05:00:00 6,4 5,5 3 1 10 5 NNW 1021,6 0,4 0 0,2
26.01.2020 04:00:00 6,9 6,1 5 3 10 5 ZW 1021,4 5 0 0,0
26.01.2020 03:00:00 7,1 6,4 3 1 9 5 ZZW 1021,0 6 0 0,0
26.01.2020 02:00:00 6,8 5,9 3 2 6 4 W 1020,9 0,1 0 0,0
26.01.2020 01:00:00 6,2 5,3 2 1 5 3 NW 1020,5 0,1 0 -
26.01.2020 00:00:00 6,0 5,0 0 0 9 5 N 1020,3 0,4 0 0,0
25.01.2020 23:00:00 7,2 6,1 6 3 10 6 ZZW 1019,9 7 0 0,0
25.01.2020 22:00:00 6,8 5,8 1 1 6 3 NW 1019,7 14 0 0,0
25.01.2020 21:00:00 7,0 5,8 3 1 5 3 WNW 1019,1 4,9 0 0,0
25.01.2020 20:00:00 8,3 7,1 4 2 7 4 N 1018,1 13 0 0,0
25.01.2020 19:00:00 9,0 7,6 5 3 10 6 O 1017,3 14 0 -
25.01.2020 18:00:00 9,8 8,3 6 3 16 8 ONO 1016,8 20 10 0,0
25.01.2020 17:00:00 10,7 8,7 5 3 11 6 N 1016,2 20 3 0,0
25.01.2020 16:00:00 10,5 8,1 6 3 14 8 NO 1016,3 20 0 0,0
25.01.2020 15:00:00 10,5 8,8 8 5 14 8 ONO 1016,6 20 0 0,2
25.01.2020 14:00:00 9,9 8,7 8 4 16 9 ONO 1017,4 19 0 0,2
25.01.2020 13:00:00 9,2 8,1 7 4 14 8 O 1018,4 9 0 -
25.01.2020 12:00:00 8,9 7,7 8 5 15 8 O 1018,7 12 0 0,0
25.01.2020 11:00:00 8,2 7,3 6 3 11 6 O 1018,5 2,6 0 0,0
25.01.2020 10:00:00 7,5 6,5 6 3 10 6 ONO 1018,2 6 0 0,0
25.01.2020 09:00:00 7,3 6,2 6 3 12 6 ONO 1017,7 5 0 0,0
25.01.2020 08:00:00 7,4 6,4 7 4 12 7 O 1017,3 6 0 0,2
25.01.2020 07:00:00 7,5 6,4 8 4 16 9 O 1017,1 6 0 -
25.01.2020 06:00:00 7,7 6,7 9 5 - - O 1017,1 7 - -
25.01.2020 05:00:00 - - - - - - - - - - -
25.01.2020 04:00:00 7,5 6,4 12 6 21 11 O 1017,4 5 0 0,6
25.01.2020 03:00:00 7,2 6,1 9 5 16 8 ONO 1018,4 4,4 0 1,6
25.01.2020 02:00:00 7,6 6,4 9 5 16 9 O 1019,2 2,6 0 3,0
25.01.2020 01:00:00 7,7 6,4 10 6 21 12 O 1019,6 7 0 -
25.01.2020 00:00:00 7,7 5,9 10 5 22 12 O 1019,7 20 0 0,0
24.01.2020 23:00:00 7,9 6,1 11 6 21 11 OZO 1019,8 20 0 0,0
24.01.2020 22:00:00 7,0 5,5 7 4 12 7 ONO 1020,3 17 0 0,0
24.01.2020 21:00:00 7,7 5,9 7 4 11 6 O 1020,2 20 0 0,0
24.01.2020 20:00:00 8,0 6,1 6 4 11 6 O 1019,7 18 0 0,0
24.01.2020 19:00:00 8,6 6,2 8 4 12 7 ONO 1019,5 20 0 -
24.01.2020 18:00:00 10,2 6,5 5 3 13 7 O 1019,6 20 2 0,0
24.01.2020 17:00:00 11,1 7,3 7 4 13 7 O 1019,6 20 17 0,0
24.01.2020 16:00:00 10,7 6,8 6 3 13 7 ZO 1019,7 20 0 0,0
24.01.2020 15:00:00 10,8 7,3 7 4 13 7 O 1019,9 20 1 0,0
24.01.2020 14:00:00 10,5 7,6 5 3 13 7 ONO 1021,0 20 11 0,0
24.01.2020 13:00:00 9,6 7,7 7 4 12 6 O 1022,0 11 0 -
24.01.2020 12:00:00 8,7 7,4 5 3 10 5 O 1022,5 10 0 0,0
24.01.2020 11:00:00 7,9 6,8 7 4 12 6 O 1022,0 6 0 0,0
24.01.2020 10:00:00 7,4 6,4 5 3 10 5 ONO 1021,8 4,7 0 0,0
24.01.2020 09:00:00 7,3 6,2 4 2 10 5 ONO 1021,5 4,4 0 0,2
24.01.2020 08:00:00 7,2 6,1 6 3 10 5 O 1021,0 6 0 0,2
24.01.2020 07:00:00 7,2 6,1 5 3 9 5 ONO 1020,5 6 0 -
24.01.2020 06:00:00 7,3 6,1 1 1 3 2 N 1020,5 2,1 0 0,6
24.01.2020 05:00:00 7,5 6,1 2 1 9 5 NW 1020,6 2,7 0 3,0
24.01.2020 04:00:00 7,9 6,4 3 2 7 4 ZZO 1020,6 6 0 0,8
24.01.2020 03:00:00 7,8 6,1 0 0 9 5 N 1020,4 4,8 0 0,8
24.01.2020 02:00:00 8,2 6,1 4 2 16 9 OZO 1020,3 10 0 0,2
24.01.2020 01:00:00 8,3 5,8 4 2 14 8 NO 1020,4 20 0 -
24.01.2020 00:00:00 8,5 5,8 6 3 10 5 O 1020,3 18 0 0,0
23.01.2020 23:00:00 8,4 5,1 6 3 10 5 O 1020,0 19 0 0,0
23.01.2020 22:00:00 8,0 5,1 6 3 11 6 O 1019,9 16 0 0,0
23.01.2020 21:00:00 8,9 5,3 6 3 12 6 O 1019,4 16 0 0,0
23.01.2020 20:00:00 9,2 5,0 4 2 10 5 O 1019,0 15 0 0,0
23.01.2020 19:00:00 9,1 4,6 8 4 18 10 ONO 1018,5 18 0 -

tt = temperatuur
td = dauwpunt
ff = windsnelheid
fx = windstoten
dd = windrichting
ppp = luchtdruk
vv = zicht
sd = Zonneschijnduur
rr = neerslag

Weerstations in de omgeving